map of RES home
Great Circle Mapper logo
RES - Airport
Location
City:  Resistencia, Argentina
ICAO / IATA:SARE / RES

Details
Type:Airport (Aerodrome, Airfield)
Use:Public/Civil
Latitude:2727'00"S (-27.449985)
Longitude:5903'22"W (-59.056124)
Datum:WGS 1984
Elevation:173 ft (53 m)
Variation:11.52W (WMM2015 magnetic declination)
-0.18 annual change
Runways:1
Longest:9088 × 147 ft (2770 × 45 m), paved

Time
Time Zone:UTC-3
Local Time:

Weather
METAR:SARE 251500Z 34002KT 9999 FEW030 SCT200 31/24 Q1010
TAF:SARE 251100Z 2512/2612 05005KT CAVOK TX38/2518Z TN24/2609Z
BECMG 2516/2518 9999 SCT030 PROB30
TEMPO 2519/2522 -TSRA BKN030 FEW050CB

Related Locations
Nearby:
Farthest:WNZ: 12441 mi / 20021 km
Wenzhou [Intl], Zhejiang, CN

Find:

   beyond  
but within

Other Information
Maps:
NOTAMs:
Links:
Sources:

  
flag of Argentina   

Sectional Chart

Flight Planning
at skyvector.com

Satellite Image

Google Maps Satellite View

 

Copyright © 2004-2015 Karl L. Swartz. All rights reserved.
The Great Circle Mapper name and logo are trademarks of the Great Circle Mapper.
All other trademarks mentioned herein belong to their respective owners.
Please see credits for attibutions and further copyright information.

  Follow gcmap on Facebook Follow gcmap on Twitter

hCard Microformat

Geo Microformat